Time,TemperatureF,DewpointF,PressureIn,WindDirection,WindDirectionDegrees,WindSpeedMPH,WindSpeedGustMPH,Humidity,HourlyPrecipIn,Conditions,Clouds,dailyrainin,SoftwareType,DateUTC
2013-01-08 00:00:00,27.3,24.2,30.33,SSW,200,0.0,7.0,88,0.00,,,0.00,Wunderground v.1.15,2013-01-08 05:00:00,
2013-01-08 00:05:00,27.2,24.1,30.33,SSW,200,0.0,7.0,88,0.00,,,0.00,Wunderground v.1.15,2013-01-08 05:05:00,
2013-01-08 00:10:00,27.1,24.0,30.33,SSW,200,0.0,7.0,88,0.00,,,0.00,Wunderground v.1.15,2013-01-08 05:10:00,
2013-01-08 00:15:00,27.0,24.2,30.33,SSW,200,0.0,7.0,89,0.00,,,0.00,Wunderground v.1.15,2013-01-08 05:15:00,
2013-01-08 00:20:00,27.0,24.2,30.33,SSW,200,0.0,7.0,89,0.00,,,0.00,Wunderground v.1.15,2013-01-08 05:20:00,
2013-01-08 00:25:00,27.0,24.2,30.33,SSW,200,0.0,7.0,89,0.00,,,0.00,Wunderground v.1.15,2013-01-08 05:25:00,
2013-01-08 00:30:00,27.0,24.2,30.33,SSW,200,0.0,7.0,89,0.00,,,0.00,Wunderground v.1.15,2013-01-08 05:30:00,
2013-01-08 00:35:00,26.9,24.1,30.33,SSW,200,0.0,7.0,89,0.00,,,0.00,Wunderground v.1.15,2013-01-08 05:35:00,
2013-01-08 00:40:00,26.8,24.0,30.33,SSW,200,0.0,7.0,89,0.00,,,0.00,Wunderground v.1.15,2013-01-08 05:40:00,
2013-01-08 00:50:00,26.7,23.9,30.32,SSW,200,0.0,7.0,89,0.00,,,0.00,Wunderground v.1.15,2013-01-08 05:50:00,
2013-01-08 00:55:00,26.7,23.9,30.32,SSW,200,0.0,7.0,89,0.00,,,0.00,Wunderground v.1.15,2013-01-08 05:55:00,
2013-01-08 01:00:00,26.6,23.8,30.32,SSW,200,0.0,7.0,89,0.00,,,0.00,Wunderground v.1.15,2013-01-08 06:00:00,
2013-01-08 01:05:00,26.6,24.1,30.32,SSW,200,0.0,7.0,90,0.00,,,0.00,Wunderground v.1.15,2013-01-08 06:05:00,
2013-01-08 01:10:00,26.7,24.2,30.31,SSW,200,0.0,7.0,90,0.00,,,0.00,Wunderground v.1.15,2013-01-08 06:10:00,
2013-01-08 01:20:00,26.6,23.8,30.32,SSW,200,0.0,7.0,89,0.00,,,0.00,Wunderground v.1.15,2013-01-08 06:20:00,
2013-01-08 01:25:00,26.5,23.7,30.32,SSW,200,0.0,7.0,89,0.00,,,0.00,Wunderground v.1.15,2013-01-08 06:25:00,
2013-01-08 01:30:00,26.4,23.6,30.32,SSW,200,0.0,7.0,89,0.00,,,0.00,Wunderground v.1.15,2013-01-08 06:30:00,
2013-01-08 01:35:00,26.4,23.9,30.31,SSW,200,0.0,7.0,90,0.00,,,0.00,Wunderground v.1.15,2013-01-08 06:35:00,
2013-01-08 01:40:00,26.4,23.9,30.32,SSW,200,0.0,7.0,90,0.00,,,0.00,Wunderground v.1.15,2013-01-08 06:40:00,
2013-01-08 01:45:00,26.4,23.9,30.31,SSW,200,0.0,7.0,90,0.00,,,0.00,Wunderground v.1.15,2013-01-08 06:45:00,
2013-01-08 01:50:00,26.4,23.6,30.31,SSW,200,0.0,7.0,89,0.00,,,0.00,Wunderground v.1.15,2013-01-08 06:50:00,
2013-01-08 02:00:00,26.1,23.3,30.32,SSW,200,0.0,7.0,89,0.00,,,0.00,Wunderground v.1.15,2013-01-08 07:00:00,
2013-01-08 02:05:00,26.1,23.6,30.32,SSW,200,0.0,7.0,90,0.00,,,0.00,Wunderground v.1.15,2013-01-08 07:05:00,
2013-01-08 02:10:00,26.0,23.5,30.32,SSW,200,0.0,7.0,90,0.00,,,0.00,Wunderground v.1.15,2013-01-08 07:10:00,
2013-01-08 02:15:00,25.8,23.3,30.32,SSW,200,0.0,7.0,90,0.00,,,0.00,Wunderground v.1.15,2013-01-08 07:15:00,
2013-01-08 02:20:00,25.8,23.3,30.32,SSW,200,0.0,7.0,90,0.00,,,0.00,Wunderground v.1.15,2013-01-08 07:20:00,
2013-01-08 02:25:00,25.8,23.3,30.32,SSW,200,0.0,7.0,90,0.00,,,0.00,Wunderground v.1.15,2013-01-08 07:25:00,
2013-01-08 02:30:00,25.8,23.3,30.32,SSW,200,0.0,7.0,90,0.00,,,0.00,Wunderground v.1.15,2013-01-08 07:30:00,
2013-01-08 02:35:00,25.7,23.2,30.32,SSW,200,0.0,7.0,90,0.00,,,0.00,Wunderground v.1.15,2013-01-08 07:35:00,
2013-01-08 02:40:00,25.6,23.1,30.31,SSW,200,0.0,7.0,90,0.00,,,0.00,Wunderground v.1.15,2013-01-08 07:40:00,
2013-01-08 02:45:00,25.6,23.1,30.31,SSW,200,0.0,7.0,90,0.00,,,0.00,Wunderground v.1.15,2013-01-08 07:45:00,
2013-01-08 02:55:00,25.5,23.0,30.32,SSW,200,0.0,7.0,90,0.00,,,0.00,Wunderground v.1.15,2013-01-08 07:55:00,
2013-01-08 03:00:00,25.4,22.9,30.32,SSW,200,0.0,7.0,90,0.00,,,0.00,Wunderground v.1.15,2013-01-08 08:00:00,
2013-01-08 03:05:00,25.4,23.1,30.31,SSW,200,0.0,7.0,91,0.00,,,0.00,Wunderground v.1.15,2013-01-08 08:05:00,
2013-01-08 03:10:00,25.5,23.2,30.31,SSW,200,0.0,7.0,91,0.00,,,0.00,Wunderground v.1.15,2013-01-08 08:10:00,
2013-01-08 03:15:00,25.5,23.2,30.31,SSW,200,0.0,7.0,91,0.00,,,0.00,Wunderground v.1.15,2013-01-08 08:15:00,
2013-01-08 03:20:00,25.5,23.0,30.31,SSW,200,0.0,7.0,90,0.00,,,0.00,Wunderground v.1.15,2013-01-08 08:20:00,
2013-01-08 03:30:00,25.5,23.2,30.31,SSW,200,0.0,7.0,91,0.00,,,0.00,Wunderground v.1.15,2013-01-08 08:30:00,
2013-01-08 03:35:00,25.4,22.9,30.31,SSW,200,0.0,7.0,90,0.00,,,0.00,Wunderground v.1.15,2013-01-08 08:35:00,
2013-01-08 03:40:00,25.4,23.1,30.31,SSW,200,0.0,7.0,91,0.00,,,0.00,Wunderground v.1.15,2013-01-08 08:40:00,
2013-01-08 03:45:00,25.5,23.2,30.31,SSW,200,0.0,7.0,91,0.00,,,0.00,Wunderground v.1.15,2013-01-08 08:45:00,
2013-01-08 03:50:00,25.5,23.2,30.31,SSW,200,0.0,7.0,91,0.00,,,0.00,Wunderground v.1.15,2013-01-08 08:50:00,
2013-01-08 04:00:00,25.3,23.0,30.31,SSW,200,0.0,7.0,91,0.00,,,0.00,Wunderground v.1.15,2013-01-08 09:00:00,
2013-01-08 04:05:00,25.1,22.6,30.31,SSW,200,0.0,7.0,90,0.00,,,0.00,Wunderground v.1.15,2013-01-08 09:05:00,
2013-01-08 04:10:00,25.1,22.6,30.31,SSW,200,0.0,7.0,90,0.00,,,0.00,Wunderground v.1.15,2013-01-08 09:10:00,
2013-01-08 04:15:00,25.0,22.5,30.30,SSW,200,0.0,7.0,90,0.00,,,0.00,Wunderground v.1.15,2013-01-08 09:15:00,
2013-01-08 04:20:00,24.8,22.3,30.31,SSW,200,0.0,7.0,90,0.00,,,0.00,Wunderground v.1.15,2013-01-08 09:20:00,
2013-01-08 04:25:00,24.7,22.2,30.31,SSW,200,0.0,7.0,90,0.00,,,0.00,Wunderground v.1.15,2013-01-08 09:25:00,
2013-01-08 04:35:00,24.4,21.9,30.31,SSW,200,0.0,7.0,90,0.00,,,0.00,Wunderground v.1.15,2013-01-08 09:35:00,
2013-01-08 04:40:00,24.3,21.8,30.31,SSW,200,0.0,7.0,90,0.00,,,0.00,Wunderground v.1.15,2013-01-08 09:40:00,
2013-01-08 04:45:00,24.1,21.6,30.31,SSW,200,0.0,7.0,90,0.00,,,0.00,Wunderground v.1.15,2013-01-08 09:45:00,
2013-01-08 04:50:00,23.9,21.4,30.30,SSW,200,0.0,7.0,90,0.00,,,0.00,Wunderground v.1.15,2013-01-08 09:50:00,
2013-01-08 04:55:00,23.8,21.3,30.31,SSW,200,0.0,7.0,90,0.00,,,0.00,Wunderground v.1.15,2013-01-08 09:55:00,
2013-01-08 05:00:00,23.8,21.3,30.31,SSW,200,0.0,7.0,90,0.00,,,0.00,Wunderground v.1.15,2013-01-08 10:00:00,
2013-01-08 05:05:00,23.8,21.6,30.31,SSW,200,0.0,7.0,91,0.00,,,0.00,Wunderground v.1.15,2013-01-08 10:05:00,
2013-01-08 05:10:00,23.8,21.6,30.31,SSW,200,0.0,7.0,91,0.00,,,0.00,Wunderground v.1.15,2013-01-08 10:10:00,
2013-01-08 05:15:00,23.8,21.6,30.31,SSW,200,0.0,7.0,91,0.00,,,0.00,Wunderground v.1.15,2013-01-08 10:15:00,
2013-01-08 05:20:00,23.7,21.5,30.31,SSW,200,0.0,7.0,91,0.00,,,0.00,Wunderground v.1.15,2013-01-08 10:20:00,
2013-01-08 05:25:00,23.6,21.4,30.32,SSW,200,0.0,7.0,91,0.00,,,0.00,Wunderground v.1.15,2013-01-08 10:25:00,
2013-01-08 05:35:00,23.3,21.1,30.32,SSW,200,0.0,7.0,91,0.00,,,0.00,Wunderground v.1.15,2013-01-08 10:35:00,
2013-01-08 05:40:00,23.3,21.1,30.32,SSW,200,0.0,7.0,91,0.00,,,0.00,Wunderground v.1.15,2013-01-08 10:40:00,
2013-01-08 05:45:00,23.3,21.1,30.32,SSW,200,0.0,7.0,91,0.00,,,0.00,Wunderground v.1.15,2013-01-08 10:45:00,
2013-01-08 05:50:00,23.3,21.1,30.32,SSW,200,0.0,7.0,91,0.00,,,0.00,Wunderground v.1.15,2013-01-08 10:50:00,
2013-01-08 05:55:00,23.4,21.2,30.32,SSW,200,0.0,7.0,91,0.00,,,0.00,Wunderground v.1.15,2013-01-08 10:55:00,
2013-01-08 06:00:00,23.3,21.1,30.33,SSW,200,0.0,7.0,91,0.00,,,0.00,Wunderground v.1.15,2013-01-08 11:00:00,
2013-01-08 06:10:00,23.1,20.9,30.33,SSW,200,0.0,7.0,91,0.00,,,0.00,Wunderground v.1.15,2013-01-08 11:10:00,
2013-01-08 06:15:00,23.1,21.1,30.33,SSW,200,0.0,7.0,92,0.00,,,0.00,Wunderground v.1.15,2013-01-08 11:15:00,
2013-01-08 06:20:00,23.3,21.3,30.33,SSW,200,0.0,7.0,92,0.00,,,0.00,Wunderground v.1.15,2013-01-08 11:20:00,
2013-01-08 06:25:00,23.3,21.1,30.33,SSW,200,0.0,7.0,91,0.00,,,0.00,Wunderground v.1.15,2013-01-08 11:25:00,
2013-01-08 06:30:00,23.1,20.9,30.33,SSW,200,0.0,7.0,91,0.00,,,0.00,Wunderground v.1.15,2013-01-08 11:30:00,
2013-01-08 06:40:00,22.9,20.7,30.33,SSW,200,0.0,7.0,91,0.00,,,0.00,Wunderground v.1.15,2013-01-08 11:40:00,
2013-01-08 06:45:00,22.9,20.7,30.33,SSW,200,0.0,7.0,91,0.00,,,0.00,Wunderground v.1.15,2013-01-08 11:45:00,
2013-01-08 06:50:00,22.8,20.6,30.34,SSW,200,0.0,7.0,91,0.00,,,0.00,Wunderground v.1.15,2013-01-08 11:50:00,
2013-01-08 06:55:00,22.8,20.6,30.33,SSW,200,0.0,7.0,91,0.00,,,0.00,Wunderground v.1.15,2013-01-08 11:55:00,
2013-01-08 07:00:00,22.8,20.6,30.33,SSW,200,0.0,7.0,91,0.00,,,0.00,Wunderground v.1.15,2013-01-08 12:00:00,
2013-01-08 07:05:00,22.8,20.6,30.34,SSW,200,0.0,7.0,91,0.00,,,0.00,Wunderground v.1.15,2013-01-08 12:05:00,
2013-01-08 07:10:00,22.9,20.9,30.34,SSW,200,0.0,7.0,92,0.00,,,0.00,Wunderground v.1.15,2013-01-08 12:10:00,
2013-01-08 07:15:00,23.0,21.0,30.34,SSW,200,0.0,7.0,92,0.00,,,0.00,Wunderground v.1.15,2013-01-08 12:15:00,
2013-01-08 07:20:00,23.0,21.0,30.34,SSW,200,0.0,7.0,92,0.00,,,0.00,Wunderground v.1.15,2013-01-08 12:20:00,
2013-01-08 07:25:00,22.9,20.7,30.34,SSW,200,0.0,7.0,91,0.00,,,0.00,Wunderground v.1.15,2013-01-08 12:25:00,
2013-01-08 07:30:00,23.0,21.0,30.34,SSW,200,0.0,7.0,92,0.00,,,0.00,Wunderground v.1.15,2013-01-08 12:30:00,
2013-01-08 07:35:00,23.0,21.0,30.34,SSW,200,0.0,7.0,92,0.00,,,0.00,Wunderground v.1.15,2013-01-08 12:35:00,
2013-01-08 07:40:00,23.0,21.0,30.34,SSW,200,0.0,7.0,92,0.00,,,0.00,Wunderground v.1.15,2013-01-08 12:40:00,
2013-01-08 07:45:00,23.1,21.1,30.34,SSW,200,0.0,7.0,92,0.00,,,0.00,Wunderground v.1.15,2013-01-08 12:45:00,
2013-01-08 07:50:00,23.3,21.3,30.34,SSW,200,0.0,7.0,92,0.00,,,0.00,Wunderground v.1.15,2013-01-08 12:50:00,
2013-01-08 07:55:00,23.3,21.3,30.34,SSW,200,0.0,7.0,92,0.00,,,0.00,Wunderground v.1.15,2013-01-08 12:55:00,
2013-01-08 08:01:00,23.4,21.4,30.35,SSW,200,0.0,0.0,92,0.00,,,0.00,Wunderground v.1.15,2013-01-08 13:01:00,
2013-01-08 08:10:00,23.6,21.6,30.35,SSW,200,0.0,0.0,92,0.00,,,0.00,Wunderground v.1.15,2013-01-08 13:10:00,
2013-01-08 08:20:00,24.0,22.0,30.36,SSW,200,0.0,0.0,92,0.00,,,0.00,Wunderground v.1.15,2013-01-08 13:20:00,
2013-01-08 08:25:00,24.4,22.7,30.36,SSW,200,0.0,0.0,93,0.00,,,0.00,Wunderground v.1.15,2013-01-08 13:25:00,
2013-01-08 08:30:00,24.9,23.2,30.36,SSW,200,0.0,0.0,93,0.00,,,0.00,Wunderground v.1.15,2013-01-08 13:30:00,
2013-01-08 08:35:00,25.5,23.8,30.36,SSW,200,0.0,0.0,93,0.00,,,0.00,Wunderground v.1.15,2013-01-08 13:35:00,
2013-01-08 08:40:00,26.2,24.7,30.37,SSW,200,0.0,0.0,94,0.00,,,0.00,Wunderground v.1.15,2013-01-08 13:40:00,
2013-01-08 08:45:00,26.8,25.3,30.38,SSW,200,0.0,0.0,94,0.00,,,0.00,Wunderground v.1.15,2013-01-08 13:45:00,
2013-01-08 08:50:00,27.5,26.0,30.37,SSW,200,0.0,0.0,94,0.00,,,0.00,Wunderground v.1.15,2013-01-08 13:50:00,
2013-01-08 08:55:00,28.2,26.7,30.37,SSW,200,0.0,0.0,94,0.00,,,0.00,Wunderground v.1.15,2013-01-08 13:55:00,
2013-01-08 09:01:00,28.9,27.1,30.37,SSW,200,0.0,0.0,93,0.00,,,0.00,Wunderground v.1.15,2013-01-08 14:01:00,
2013-01-08 09:10:00,30.1,28.1,30.38,SSW,200,0.0,0.0,92,0.00,,,0.00,Wunderground v.1.15,2013-01-08 14:10:00,
2013-01-08 09:15:00,30.4,28.1,30.38,SSW,200,0.0,0.0,91,0.00,,,0.00,Wunderground v.1.15,2013-01-08 14:15:00,
2013-01-08 09:25:00,31.1,28.8,30.37,SSW,200,0.0,0.0,91,0.00,,,0.00,Wunderground v.1.15,2013-01-08 14:25:00,
2013-01-08 09:30:00,31.9,29.6,30.37,SSW,200,0.0,0.0,91,0.00,,,0.00,Wunderground v.1.15,2013-01-08 14:30:00,
2013-01-08 09:35:00,32.7,30.1,30.38,SSW,200,0.0,0.0,90,0.00,,,0.00,Wunderground v.1.15,2013-01-08 14:35:00,
2013-01-08 09:40:00,33.7,31.1,30.38,SSW,200,0.0,0.0,90,0.00,,,0.00,Wunderground v.1.15,2013-01-08 14:40:00,
2013-01-08 09:45:00,34.6,31.4,30.38,SSW,200,0.0,0.0,88,0.00,,,0.00,Wunderground v.1.15,2013-01-08 14:45:00,
2013-01-08 09:55:00,35.7,31.3,30.38,SSW,200,0.0,0.0,84,0.00,,,0.00,Wunderground v.1.15,2013-01-08 14:55:00,
2013-01-08 10:00:00,36.2,31.5,30.38,SSW,200,0.0,0.0,83,0.00,,,0.00,Wunderground v.1.15,2013-01-08 15:00:00,
2013-01-08 10:10:00,36.6,31.0,30.38,SSW,200,0.0,0.0,80,0.00,,,0.00,Wunderground v.1.15,2013-01-08 15:10:00,
2013-01-08 10:15:00,36.8,31.5,30.38,SSW,200,0.0,0.0,81,0.00,,,0.00,Wunderground v.1.15,2013-01-08 15:15:00,
2013-01-08 10:20:00,37.1,31.5,30.38,SSW,200,0.0,0.0,80,0.00,,,0.00,Wunderground v.1.15,2013-01-08 15:20:00,
2013-01-08 10:30:00,37.8,32.2,30.39,SSW,200,0.0,0.0,80,0.00,,,0.00,Wunderground v.1.15,2013-01-08 15:30:00,
2013-01-08 10:35:00,38.3,32.7,30.39,SSW,200,0.0,0.0,80,0.00,,,0.00,Wunderground v.1.15,2013-01-08 15:35:00,
2013-01-08 10:40:00,38.7,32.7,30.38,SSW,200,0.0,0.0,79,0.00,,,0.00,Wunderground v.1.15,2013-01-08 15:40:00,
2013-01-08 10:45:00,39.0,32.7,30.38,SSW,200,0.0,0.0,78,0.00,,,0.00,Wunderground v.1.15,2013-01-08 15:45:00,
2013-01-08 10:50:00,39.6,32.7,30.37,SSW,200,0.0,0.0,76,0.00,,,0.00,Wunderground v.1.15,2013-01-08 15:50:00,
2013-01-08 11:01:00,40.4,32.8,30.37,SSW,200,0.0,0.0,74,0.00,,,0.00,Wunderground v.1.15,2013-01-08 16:01:00,
2013-01-08 11:10:00,41.2,32.9,30.37,SSW,200,0.0,0.0,72,0.00,,,0.00,Wunderground v.1.15,2013-01-08 16:10:00,
2013-01-08 11:15:00,41.7,33.3,30.37,SSW,200,0.0,0.0,72,0.00,,,0.00,Wunderground v.1.15,2013-01-08 16:15:00,
2013-01-08 11:20:00,42.3,33.2,30.37,SSW,200,0.0,0.0,70,0.00,,,0.00,Wunderground v.1.15,2013-01-08 16:20:00,
2013-01-08 11:25:00,42.8,33.3,30.37,SSW,200,0.0,0.0,69,0.00,,,0.00,Wunderground v.1.15,2013-01-08 16:25:00,
2013-01-08 11:30:00,43.4,33.5,30.37,West,279,0.0,0.0,68,0.00,,,0.00,Wunderground v.1.15,2013-01-08 16:30:00,
2013-01-08 11:40:00,43.8,33.2,30.36,SW,224,0.0,0.0,66,0.00,,,0.00,Wunderground v.1.15,2013-01-08 16:40:00,
2013-01-08 11:45:00,43.7,33.5,30.35,SW,224,0.0,0.0,67,0.00,,,0.00,Wunderground v.1.15,2013-01-08 16:45:00,
2013-01-08 11:50:00,44.1,34.2,30.35,SW,224,0.0,0.0,68,0.00,,,0.00,Wunderground v.1.15,2013-01-08 16:50:00,
2013-01-08 11:55:00,44.6,33.9,30.35,SW,221,0.0,0.0,66,0.00,,,0.00,Wunderground v.1.15,2013-01-08 16:55:00,
2013-01-08 12:01:00,45.1,34.4,30.35,SW,221,0.0,0.0,66,0.00,,,0.00,Wunderground v.1.15,2013-01-08 17:01:00,
2013-01-08 12:10:00,46.0,34.5,30.35,West,273,0.0,0.0,64,0.00,,,0.00,Wunderground v.1.15,2013-01-08 17:10:00,
2013-01-08 12:15:00,46.5,34.2,30.34,SSW,206,0.0,0.0,62,0.00,,,0.00,Wunderground v.1.15,2013-01-08 17:15:00,
2013-01-08 12:20:00,47.1,34.7,30.34,West,267,0.0,0.0,62,0.00,,,0.00,Wunderground v.1.15,2013-01-08 17:20:00,
2013-01-08 12:25:00,47.8,35.0,30.34,WSW,240,0.0,0.0,61,0.00,,,0.00,Wunderground v.1.15,2013-01-08 17:25:00,
2013-01-08 12:30:00,48.2,35.0,30.34,West,273,0.0,0.0,60,0.00,,,0.00,Wunderground v.1.15,2013-01-08 17:30:00,
2013-01-08 12:40:00,48.7,35.0,30.33,NW,323,0.0,0.0,59,0.00,,,0.00,Wunderground v.1.15,2013-01-08 17:40:00,
2013-01-08 12:45:00,48.7,35.0,30.33,NW,325,0.0,0.0,59,0.00,,,0.00,Wunderground v.1.15,2013-01-08 17:45:00,
2013-01-08 12:50:00,49.1,35.4,30.33,NNE,30,0.0,0.0,59,0.00,,,0.00,Wunderground v.1.15,2013-01-08 17:50:00,
2013-01-08 12:55:00,49.5,35.3,30.33,WSW,240,0.0,0.0,58,0.00,,,0.00,Wunderground v.1.15,2013-01-08 17:55:00,
2013-01-08 13:01:00,49.6,35.0,30.33,WSW,257,0.0,0.0,57,0.00,,,0.00,Wunderground v.1.15,2013-01-08 18:01:00,
2013-01-08 13:10:00,49.1,34.9,30.32,WSW,246,0.0,0.0,58,0.00,,,0.00,Wunderground v.1.15,2013-01-08 18:10:00,
2013-01-08 13:15:00,48.8,34.7,30.32,SW,217,0.0,0.0,58,0.00,,,0.00,Wunderground v.1.15,2013-01-08 18:15:00,
2013-01-08 13:20:00,48.6,34.9,30.32,West,261,0.0,0.0,59,0.00,,,0.00,Wunderground v.1.15,2013-01-08 18:20:00,
2013-01-08 13:25:00,48.6,34.9,30.33,NW,309,0.0,0.0,59,0.00,,,0.00,Wunderground v.1.15,2013-01-08 18:25:00,
2013-01-08 13:30:00,48.7,35.0,30.32,NW,304,0.0,0.0,59,0.00,,,0.00,Wunderground v.1.15,2013-01-08 18:30:00,
2013-01-08 13:35:00,48.7,35.0,30.32,SW,234,0.0,0.0,59,0.00,,,0.00,Wunderground v.1.15,2013-01-08 18:35:00,
2013-01-08 13:40:00,48.6,35.3,30.32,SW,230,0.0,0.0,60,0.00,,,0.00,Wunderground v.1.15,2013-01-08 18:40:00,
2013-01-08 13:45:00,48.5,34.8,30.32,SSW,198,0.0,0.0,59,0.00,,,0.00,Wunderground v.1.15,2013-01-08 18:45:00,
2013-01-08 13:50:00,48.4,35.1,30.31,SSW,199,0.0,0.0,60,0.00,,,0.00,Wunderground v.1.15,2013-01-08 18:50:00,
2013-01-08 13:55:00,48.4,34.7,30.31,SSW,213,0.0,0.0,59,0.00,,,0.00,Wunderground v.1.15,2013-01-08 18:55:00,
2013-01-08 14:01:00,48.5,35.2,30.31,SW,223,0.0,0.0,60,0.00,,,0.00,Wunderground v.1.15,2013-01-08 19:01:00,
2013-01-08 14:10:00,49.0,35.7,30.31,SSW,201,0.0,0.0,60,0.00,,,0.00,Wunderground v.1.15,2013-01-08 19:10:00,
2013-01-08 14:20:00,49.9,36.1,30.30,WSW,248,0.0,0.0,59,0.00,,,0.00,Wunderground v.1.15,2013-01-08 19:20:00,
2013-01-08 14:25:00,50.3,35.6,30.30,SSW,213,0.0,0.0,57,0.00,,,0.00,Wunderground v.1.15,2013-01-08 19:25:00,
2013-01-08 14:30:00,50.3,35.6,30.30,SSW,213,0.0,0.0,57,0.00,,,0.00,Wunderground v.1.15,2013-01-08 19:30:00,
2013-01-08 14:35:00,50.6,35.9,30.29,SSW,205,0.0,0.0,57,0.00,,,0.00,Wunderground v.1.15,2013-01-08 19:35:00,
2013-01-08 14:40:00,51.0,35.8,30.29,SSW,207,0.0,0.0,56,0.00,,,0.00,Wunderground v.1.15,2013-01-08 19:40:00,
2013-01-08 14:45:00,50.9,36.2,30.29,SSW,207,0.0,0.0,57,0.00,,,0.00,Wunderground v.1.15,2013-01-08 19:45:00,
2013-01-08 14:55:00,50.8,35.7,30.28,South,188,0.0,0.0,56,0.00,,,0.00,Wunderground v.1.15,2013-01-08 19:55:00,
2013-01-08 15:00:00,50.6,35.9,30.28,SW,220,0.0,0.0,57,0.00,,,0.00,Wunderground v.1.15,2013-01-08 20:00:00,
2013-01-08 15:10:00,51.2,36.5,30.28,SSW,209,0.0,0.0,57,0.00,,,0.00,Wunderground v.1.15,2013-01-08 20:10:00,
2013-01-08 15:15:00,51.2,36.0,30.29,SW,217,0.0,0.0,56,0.00,,,0.00,Wunderground v.1.15,2013-01-08 20:15:00,
2013-01-08 15:25:00,51.7,36.5,30.29,WNW,284,0.0,0.0,56,0.00,,,0.00,Wunderground v.1.15,2013-01-08 20:25:00,
2013-01-08 15:30:00,52.0,35.9,30.29,WSW,238,0.0,0.0,54,0.00,,,0.00,Wunderground v.1.15,2013-01-08 20:30:00,
2013-01-08 15:35:00,52.2,36.5,30.29,WSW,238,0.0,0.0,55,0.00,,,0.00,Wunderground v.1.15,2013-01-08 20:35:00,
2013-01-08 15:40:00,52.3,36.6,30.29,WSW,239,0.0,0.0,55,0.00,,,0.00,Wunderground v.1.15,2013-01-08 20:40:00,
2013-01-08 15:45:00,52.3,36.6,30.29,SW,234,0.0,0.0,55,0.00,,,0.00,Wunderground v.1.15,2013-01-08 20:45:00,
2013-01-08 15:50:00,52.0,36.3,30.30,SW,227,0.0,0.0,55,0.00,,,0.00,Wunderground v.1.15,2013-01-08 20:50:00,
2013-01-08 16:01:00,52.1,36.9,30.29,WSW,249,0.0,0.0,56,0.00,,,0.00,Wunderground v.1.15,2013-01-08 21:01:00,
2013-01-08 16:10:00,52.0,36.8,30.29,SW,219,0.0,0.0,56,0.00,,,0.00,Wunderground v.1.15,2013-01-08 21:10:00,
2013-01-08 16:15:00,51.5,36.8,30.29,SW,221,0.0,0.0,57,0.00,,,0.00,Wunderground v.1.15,2013-01-08 21:15:00,
2013-01-08 16:20:00,51.5,37.2,30.30,SW,223,0.0,0.0,58,0.00,,,0.00,Wunderground v.1.15,2013-01-08 21:20:00,
2013-01-08 16:25:00,51.6,36.9,30.29,SW,217,0.0,0.0,57,0.00,,,0.00,Wunderground v.1.15,2013-01-08 21:25:00,
2013-01-08 16:30:00,51.5,36.8,30.30,SW,217,0.0,0.0,57,0.00,,,0.00,Wunderground v.1.15,2013-01-08 21:30:00,
2013-01-08 16:35:00,51.2,36.5,30.29,SW,217,0.0,0.0,57,0.00,,,0.00,Wunderground v.1.15,2013-01-08 21:35:00,
2013-01-08 16:40:00,50.9,36.6,30.30,SW,217,0.0,0.0,58,0.00,,,0.00,Wunderground v.1.15,2013-01-08 21:40:00,
2013-01-08 16:45:00,50.5,36.3,30.29,SW,217,0.0,0.0,58,0.00,,,0.00,Wunderground v.1.15,2013-01-08 21:45:00,
2013-01-08 16:50:00,50.1,36.3,30.29,SW,217,0.0,0.0,59,0.00,,,0.00,Wunderground v.1.15,2013-01-08 21:50:00,
2013-01-08 16:55:00,49.8,36.5,30.29,SW,217,0.0,0.0,60,0.00,,,0.00,Wunderground v.1.15,2013-01-08 21:55:00,
2013-01-08 17:01:00,49.5,36.2,30.29,SW,217,0.0,0.0,60,0.00,,,0.00,Wunderground v.1.15,2013-01-08 22:01:00,
2013-01-08 17:10:00,49.4,36.5,30.29,SW,217,0.0,0.0,61,0.00,,,0.00,Wunderground v.1.15,2013-01-08 22:10:00,
2013-01-08 17:15:00,49.2,36.3,30.29,SW,217,0.0,0.0,61,0.00,,,0.00,Wunderground v.1.15,2013-01-08 22:15:00,
2013-01-08 17:20:00,48.7,36.3,30.29,SW,217,0.0,0.0,62,0.00,,,0.00,Wunderground v.1.15,2013-01-08 22:20:00,
2013-01-08 17:25:00,48.2,35.8,30.30,SW,217,0.0,0.0,62,0.00,,,0.00,Wunderground v.1.15,2013-01-08 22:25:00,
2013-01-08 17:30:00,47.8,36.2,30.30,SW,217,0.0,0.0,64,0.00,,,0.00,Wunderground v.1.15,2013-01-08 22:30:00,
2013-01-08 17:35:00,47.0,35.8,30.30,SW,217,0.0,0.0,65,0.00,,,0.00,Wunderground v.1.15,2013-01-08 22:35:00,
2013-01-08 17:40:00,46.4,35.7,30.29,SW,217,0.0,0.0,66,0.00,,,0.00,Wunderground v.1.15,2013-01-08 22:40:00,
2013-01-08 17:45:00,45.8,35.5,30.29,SW,217,0.0,0.0,67,0.00,,,0.00,Wunderground v.1.15,2013-01-08 22:45:00,
2013-01-08 17:50:00,45.4,35.5,30.30,SW,217,0.0,0.0,68,0.00,,,0.00,Wunderground v.1.15,2013-01-08 22:50:00,
2013-01-08 17:55:00,45.0,35.1,30.30,SW,217,0.0,0.0,68,0.00,,,0.00,Wunderground v.1.15,2013-01-08 22:55:00,
2013-01-08 18:00:00,44.5,35.0,30.31,SW,217,0.0,0.0,69,0.00,,,0.00,Wunderground v.1.15,2013-01-08 23:00:00,
2013-01-08 18:10:00,43.7,35.3,30.31,SW,217,0.0,0.0,72,0.00,,,0.00,Wunderground v.1.15,2013-01-08 23:10:00,
2013-01-08 18:15:00,43.5,35.8,30.31,SW,217,0.0,0.0,74,0.00,,,0.00,Wunderground v.1.15,2013-01-08 23:15:00,
2013-01-08 18:20:00,43.2,35.5,30.31,SW,217,0.0,0.0,74,0.00,,,0.00,Wunderground v.1.15,2013-01-08 23:20:00,
2013-01-08 18:25:00,42.9,35.5,30.31,SW,217,0.0,0.0,75,0.00,,,0.00,Wunderground v.1.15,2013-01-08 23:25:00,
2013-01-08 18:30:00,42.9,35.5,30.31,SW,217,0.0,0.0,75,0.00,,,0.00,Wunderground v.1.15,2013-01-08 23:30:00,
2013-01-08 18:40:00,42.8,35.8,30.31,SW,217,0.0,0.0,76,0.00,,,0.00,Wunderground v.1.15,2013-01-08 23:40:00,
2013-01-08 18:45:00,42.8,35.8,30.31,SW,217,0.0,0.0,76,0.00,,,0.00,Wunderground v.1.15,2013-01-08 23:45:00,
2013-01-08 18:50:00,42.6,35.6,30.31,SW,217,0.0,0.0,76,0.00,,,0.00,Wunderground v.1.15,2013-01-08 23:50:00,
2013-01-08 18:55:00,42.2,35.2,30.31,SW,217,0.0,0.0,76,0.00,,,0.00,Wunderground v.1.15,2013-01-08 23:55:00,
2013-01-08 19:00:00,41.8,34.8,30.31,SW,217,0.0,0.0,76,0.00,,,0.00,Wunderground v.1.15,2013-01-09 00:00:00,
2013-01-08 19:05:00,41.4,34.7,30.31,SW,217,0.0,0.0,77,0.00,,,0.00,Wunderground v.1.15,2013-01-09 00:05:00,
2013-01-08 19:15:00,40.8,34.5,30.31,SW,217,0.0,0.0,78,0.00,,,0.00,Wunderground v.1.15,2013-01-09 00:15:00,
2013-01-08 19:20:00,40.4,34.1,30.32,SW,217,0.0,0.0,78,0.00,,,0.00,Wunderground v.1.15,2013-01-09 00:20:00,
2013-01-08 19:25:00,40.0,34.3,30.31,SW,217,0.0,0.0,80,0.00,,,0.00,Wunderground v.1.15,2013-01-09 00:25:00,
2013-01-08 19:30:00,39.8,34.1,30.32,SW,217,0.0,0.0,80,0.00,,,0.00,Wunderground v.1.15,2013-01-09 00:30:00,
2013-01-08 19:35:00,39.6,33.9,30.31,SW,217,0.0,0.0,80,0.00,,,0.00,Wunderground v.1.15,2013-01-09 00:35:00,
2013-01-08 19:45:00,39.1,33.8,30.32,SW,217,0.0,0.0,81,0.00,,,0.00,Wunderground v.1.15,2013-01-09 00:45:00,
2013-01-08 19:50:00,38.8,33.5,30.32,SW,217,0.0,0.0,81,0.00,,,0.00,Wunderground v.1.15,2013-01-09 00:50:00,
2013-01-08 19:55:00,38.6,33.6,30.32,SW,217,0.0,0.0,82,0.00,,,0.00,Wunderground v.1.15,2013-01-09 00:55:00,
2013-01-08 20:00:00,38.4,33.4,30.33,SW,217,0.0,0.0,82,0.00,,,0.00,Wunderground v.1.15,2013-01-09 01:00:00,
2013-01-08 20:05:00,38.1,33.1,30.33,SW,217,0.0,0.0,82,0.00,,,0.00,Wunderground v.1.15,2013-01-09 01:05:00,
2013-01-08 20:10:00,37.9,33.2,30.33,SW,217,0.0,0.0,83,0.00,,,0.00,Wunderground v.1.15,2013-01-09 01:10:00,
2013-01-08 20:15:00,37.7,33.0,30.33,SW,217,0.0,0.0,83,0.00,,,0.00,Wunderground v.1.15,2013-01-09 01:15:00,
2013-01-08 20:20:00,37.4,32.7,30.33,SW,217,0.0,0.0,83,0.00,,,0.00,Wunderground v.1.15,2013-01-09 01:20:00,
2013-01-08 20:25:00,37.2,32.8,30.34,SW,217,0.0,0.0,84,0.00,,,0.00,Wunderground v.1.15,2013-01-09 01:25:00,
2013-01-08 20:30:00,37.1,33.0,30.33,SW,217,0.0,0.0,85,0.00,,,0.00,Wunderground v.1.15,2013-01-09 01:30:00,
2013-01-08 20:35:00,37.0,32.9,30.34,SW,217,0.0,0.0,85,0.00,,,0.00,Wunderground v.1.15,2013-01-09 01:35:00,
2013-01-08 20:40:00,37.1,33.3,30.34,SW,217,0.0,0.0,86,0.00,,,0.00,Wunderground v.1.15,2013-01-09 01:40:00,
2013-01-08 20:50:00,37.4,33.9,30.33,SW,217,0.0,0.0,87,0.00,,,0.00,Wunderground v.1.15,2013-01-09 01:50:00,
2013-01-08 20:55:00,37.5,34.0,30.33,SW,217,0.0,0.0,87,0.00,,,0.00,Wunderground v.1.15,2013-01-09 01:55:00,
2013-01-08 21:00:00,37.8,34.3,30.33,SW,217,0.0,0.0,87,0.00,,,0.00,Wunderground v.1.15,2013-01-09 02:00:00,
2013-01-08 21:05:00,37.9,34.1,30.33,SW,217,0.0,0.0,86,0.00,,,0.00,Wunderground v.1.15,2013-01-09 02:05:00,
2013-01-08 21:10:00,38.0,34.5,30.32,SW,217,0.0,0.0,87,0.00,,,0.00,Wunderground v.1.15,2013-01-09 02:10:00,
2013-01-08 21:20:00,38.5,35.0,30.32,NW,321,0.0,0.0,87,0.00,,,0.00,Wunderground v.1.15,2013-01-09 02:20:00,
2013-01-08 21:25:00,38.5,34.7,30.32,NW,321,0.0,0.0,86,0.00,,,0.00,Wunderground v.1.15,2013-01-09 02:25:00,
2013-01-08 21:30:00,38.6,34.8,30.32,NW,321,0.0,0.0,86,0.00,,,0.00,Wunderground v.1.15,2013-01-09 02:30:00,
2013-01-08 21:35:00,38.9,35.4,30.33,NW,321,0.0,0.0,87,0.00,,,0.00,Wunderground v.1.15,2013-01-09 02:35:00,
2013-01-08 21:40:00,39.4,35.6,30.33,NW,321,0.0,0.0,86,0.00,,,0.00,Wunderground v.1.15,2013-01-09 02:40:00,
2013-01-08 21:45:00,39.8,35.7,30.33,NW,321,0.0,0.0,85,0.00,,,0.00,Wunderground v.1.15,2013-01-09 02:45:00,
2013-01-08 21:55:00,40.0,35.6,30.33,NW,321,0.0,0.0,84,0.00,,,0.00,Wunderground v.1.15,2013-01-09 02:55:00,
2013-01-08 22:00:00,40.1,35.7,30.33,NW,321,0.0,0.0,84,0.00,,,0.00,Wunderground v.1.15,2013-01-09 03:00:00,
2013-01-08 22:05:00,40.3,35.8,30.33,NW,321,0.0,0.0,84,0.00,,,0.00,Wunderground v.1.15,2013-01-09 03:05:00,
2013-01-08 22:10:00,40.5,35.7,30.33,NW,321,0.0,0.0,83,0.00,,,0.00,Wunderground v.1.15,2013-01-09 03:10:00,
2013-01-08 22:15:00,40.6,35.8,30.33,NW,321,0.0,0.0,83,0.00,,,0.00,Wunderground v.1.15,2013-01-09 03:15:00,
2013-01-08 22:25:00,40.9,36.1,30.34,NW,321,0.0,0.0,83,0.00,,,0.00,Wunderground v.1.15,2013-01-09 03:25:00,
2013-01-08 22:30:00,41.1,36.3,30.34,NW,321,0.0,0.0,83,0.00,,,0.00,Wunderground v.1.15,2013-01-09 03:30:00,
2013-01-08 22:35:00,41.0,35.9,30.34,NW,321,0.0,0.0,82,0.00,,,0.00,Wunderground v.1.15,2013-01-09 03:35:00,
2013-01-08 22:40:00,41.0,35.9,30.34,NW,321,0.0,0.0,82,0.00,,,0.00,Wunderground v.1.15,2013-01-09 03:40:00,
2013-01-08 22:45:00,41.1,36.0,30.35,NW,321,0.0,0.0,82,0.00,,,0.00,Wunderground v.1.15,2013-01-09 03:45:00,
2013-01-08 22:50:00,41.3,36.2,30.34,NNW,340,0.0,0.0,82,0.00,,,0.00,Wunderground v.1.15,2013-01-09 03:50:00,
2013-01-08 22:55:00,41.6,36.2,30.34,NNW,341,0.0,0.0,81,0.00,,,0.00,Wunderground v.1.15,2013-01-09 03:55:00,
2013-01-08 23:00:00,41.7,36.3,30.34,NNW,341,0.0,0.0,81,0.00,,,0.00,Wunderground v.1.15,2013-01-09 04:00:00,
2013-01-08 23:05:00,41.8,36.1,30.34,NNW,341,0.0,0.0,80,0.00,,,0.00,Wunderground v.1.15,2013-01-09 04:05:00,
2013-01-08 23:10:00,41.8,36.1,30.34,NNW,341,0.0,0.0,80,0.00,,,0.00,Wunderground v.1.15,2013-01-09 04:10:00,
2013-01-08 23:15:00,41.9,36.2,30.34,NNW,341,0.0,0.0,80,0.00,,,0.00,Wunderground v.1.15,2013-01-09 04:15:00,
2013-01-08 23:20:00,42.0,36.3,30.34,NNW,341,0.0,0.0,80,0.00,,,0.00,Wunderground v.1.15,2013-01-09 04:20:00,
2013-01-08 23:30:00,41.9,36.5,30.34,NNW,341,0.0,0.0,81,0.00,,,0.00,Wunderground v.1.15,2013-01-09 04:30:00,
2013-01-08 23:35:00,41.9,36.5,30.34,NNW,341,0.0,0.0,81,0.00,,,0.00,Wunderground v.1.15,2013-01-09 04:35:00,
2013-01-08 23:40:00,41.9,36.2,30.34,NNW,341,0.0,0.0,80,0.00,,,0.00,Wunderground v.1.15,2013-01-09 04:40:00,
2013-01-08 23:45:00,42.0,36.3,30.33,NNW,341,0.0,0.0,80,0.00,,,0.00,Wunderground v.1.15,2013-01-09 04:45:00,
2013-01-08 23:50:00,42.1,36.4,30.33,NNW,341,0.0,0.0,80,0.00,,,0.00,Wunderground v.1.15,2013-01-09 04:50:00,